GFSGBSN_con_lsi_057.txt.gz
Lid_Strength_Index
3 3 3 3 3 3 3 3 3 3 3 3 3 3 3 3 3 3 3 2 2 2 2 2 1 1 2 5 7 4 3 1 2 3 5 6 6 5 7 6 6 7 6 5 4 4 4
3 3 3 3 3 3 3 3 3 3 3 3 3 3 3 3 3 2 2 2 2 2 2 1 1 1 2 7 3 2 3 3 3 4 5 5 6 6 6 6 6 5 5 5 5 5 4
3 3 3 3 3 3 3 3 3 3 3 3 2 3 3 3 3 3 2 2 2 2 1 1 1 1 4 6 3 2 2 3 3 3 5 4 4 6 6 7 5 5 7 6 5 6 6
4 4 3 3 3 3 3 3 3 3 3 3 3 3 3 3 3 3 3 3 3 2 1 0 1 1 5 3 2 3 3 3 3 3 4 3 4 5 6 6 7 8 7 9 7 5 5
3 3 3 3 3 3 3 3 3 3 3 3 3 3 3 3 3 3 3 3 2 1 1 1 2 3 7 3 5 4 3 5 4 4 3 4 4 6 6 9 10 9 11 9 8 5 5
4 4 4 3 3 3 3 3 3 3 3 3 3 3 3 3 2 2 2 3 1 1 1 1 2 5 4 7 5 4 3 4 5 5 5 6 6 8 8 9 13 11 11 9 9 6 6
3 3 3 3 3 3 3 3 3 3 3 3 3 3 3 3 3 2 2 1 3 4 3 6 6 6 6 5 4 5 4 5 5 6 8 6 9 10 9 8 8 9 10 11 8 6 6
4 3 3 3 3 4 4 3 3 3 3 3 3 3 3 3 3 3 2 4 4 4 7 4 5 6 5 5 7 5 4 7 7 9 7 9 10 8 7 8 9 10 11 11 9 7 7
4 4 4 4 3 3 4 4 4 3 3 3 3 3 4 3 3 3 3 4 2 2 7 7 6 6 6 5 7 6 5 6 7 9 9 10 8 6 7 8 10 10 11 11 10 8 6
4 4 4 4 4 4 4 4 4 4 4 3 3 3 3 4 4 3 3 2 1 2 9 9 7 6 6 5 7 5 4 6 7 8 7 8 6 7 7 8 7 10 8 8 10 10 12
3 4 4 4 4 4 4 4 4 4 4 4 3 3 4 5 2 3 3 1 1 3 15 8 8 4 5 7 7 6 3 5 8 7 7 8 8 8 8 8 7 9 6 7 8 9 10
3 3 4 3 4 4 4 4 4 4 4 4 4 4 4 3 2 3 1 1 3 10 15 10 7 8 7 6 6 5 5 3 3 6 6 7 5 6 7 6 6 6 7 8 8 9 13
3 4 3 3 3 3 4 4 4 4 4 4 4 4 4 2 4 2 1 3 10 12 8 10 9 8 8 7 7 6 6 7 8 11 10 8 7 6 5 8 6 7 9 13 14 14 15
3 3 3 3 3 3 3 4 4 4 4 4 5 5 4 2 1 1 2 7 14 10 9 7 8 8 8 8 7 7 7 8 8 8 10 12 13 8 6 7 9 9 10 15 19 16 14
3 3 3 3 3 3 3 4 4 4 5 5 6 2 2 1 1 2 5 11 10 9 8 9 8 9 9 7 7 7 8 8 7 7 11 12 12 7 6 6 7 9 11 9 13 13 17
3 3 3 3 3 3 3 3 4 4 5 5 5 4 3 2 1 3 7 10 8 7 7 8 10 9 10 9 9 8 8 7 8 6 5 8 12 8 7 6 6 8 7 13 11 17 19
3 3 3 3 3 3 2 3 3 4 5 5 4 6 3 2 3 6 10 9 8 6 7 8 8 9 9 9 8 9 9 7 6 6 6 7 10 10 8 10 10 9 10 9 10 12 17
3 3 3 2 2 2 3 3 3 4 5 5 5 8 3 4 8 7 9 9 9 7 6 7 6 7 9 8 9 9 9 8 5 5 8 7 10 12 10 7 6 7 9 11 14 13 12
3 3 3 3 3 3 3 3 3 4 5 5 7 7 3 4 9 9 8 8 8 7 7 7 8 7 6 8 11 9 8 6 5 6 8 8 10 14 11 10 8 9 8 10 10 12 15
3 3 2 2 3 3 3 3 3 4 5 5 7 9 6 4 5 8 9 9 9 6 7 6 7 6 7 9 8 10 9 8 6 7 6 6 10 12 15 12 12 14 11 8 10 16 13
3 3 2 2 2 2 3 3 4 5 5 5 6 7 7 9 8 9 8 8 9 8 7 7 7 7 8 11 9 10 8 8 6 6 6 8 13 10 9 9 9 9 9 9 10 9 12
3 3 3 3 3 3 3 4 4 4 5 4 8 9 8 9 9 10 9 9 9 8 7 8 8 7 8 10 9 11 9 9 11 7 8 7 13 10 11 9 9 10 9 9 9 9 9
3 3 3 4 4 4 4 4 4 4 4 5 5 6 8 9 8 10 10 10 10 8 7 7 7 8 9 7 6 5 6 6 7 9 9 10 11 12 14 10 10 12 9 9 8 8 8
3 4 5 5 5 5 5 4 4 4 4 4 5 5 9 11 9 9 9 9 10 9 9 7 6 8 5 3 4 4 5 6 7 8 8 12 11 11 14 11 18 10 7 7 8 8 8
4 5 5 5 5 5 5 5 5 5 4 5 3 5 8 12 9 9 8 9 9 8 8 8 6 5 3 5 8 9 10 11 10 8 9 9 12 14 16 16 12 10 9 10 11 11 7
5 5 5 5 6 6 6 6 5 5 5 5 5 2 5 11 10 7 8 8 10 10 8 7 5 2 4 7 9 13 14 12 13 11 8 9 10 14 14 18 19 13 9 7 7 14 8
6 6 6 6 6 6 6 6 5 5 5 5 5 2 5 9 7 7 9 10 8 9 9 8 7 6 4 8 12 14 13 9 14 14 13 12 13 15 15 17 13 10 8 7 16 13 8
6 6 6 6 6 6 6 6 6 5 5 5 5 3 5 8 6 6 6 8 8 8 11 7 8 8 8 11 10 11 12 11 12 10 11 14 14 15 14 16 17 7 7 13 8 7 7
6 6 7 6 6 6 6 6 6 5 5 5 7 4 3 7 7 4 4 4 5 6 8 7 8 8 7 10 8 8 11 10 11 14 8 13 10 14 14 12 7 6 6 6 6 7 7

GFSGBSN_con_lsi_060.txt.gz
Lid_Strength_Index
3 3 3 3 3 3 3 3 3 3 3 3 2 2 3 3 3 2 2 2 2 2 2 1 1 1 2 4 6 3 -1 0 2 2 4 5 7 7 8 8 8 9 8 7 5 5 5
3 3 3 3 3 3 3 3 3 3 3 3 3 3 3 3 3 3 2 2 2 2 2 1 1 1 2 6 3 2 3 3 3 4 5 5 6 6 8 8 7 7 7 7 6 6 6
3 3 3 3 3 3 3 3 3 3 2 2 2 2 3 3 3 2 2 2 2 2 1 1 0 1 3 5 3 2 2 3 3 3 5 4 4 6 6 8 6 7 8 7 6 6 6
3 3 3 3 3 3 3 3 3 3 3 2 3 3 3 3 3 2 2 2 2 2 1 1 0 2 5 3 2 3 3 4 3 3 4 3 4 5 6 6 7 9 9 11 7 6 6
3 3 3 3 3 3 3 3 3 3 2 2 3 3 3 3 3 2 2 2 2 1 1 1 2 2 6 3 4 4 4 5 4 4 4 4 5 7 7 9 10 9 12 11 10 6 6
3 3 3 3 3 3 3 3 3 3 3 3 3 3 3 3 3 2 2 2 1 1 1 0 2 5 4 6 5 4 3 4 5 5 5 5 6 8 8 10 14 12 11 10 11 8 7
3 3 3 3 3 3 3 4 4 3 3 3 3 3 3 3 3 3 3 1 3 4 3 5 5 5 5 4 4 5 4 5 5 6 8 7 9 10 9 8 8 9 10 11 9 8 8
3 3 3 4 4 4 3 3 3 3 4 3 3 3 3 3 3 3 3 3 4 4 7 4 4 5 5 5 7 5 4 7 7 9 8 9 10 8 7 8 9 9 10 11 9 8 8
3 3 3 4 4 4 4 3 3 3 4 4 4 3 3 3 3 4 2 3 2 2 7 6 6 6 6 5 7 6 5 6 8 9 9 10 9 7 8 9 10 10 10 11 11 9 8
3 3 3 3 3 4 3 3 3 3 3 4 4 3 3 4 5 2 3 2 1 2 9 9 8 6 5 5 7 5 4 6 8 9 9 9 7 8 8 9 9 11 8 8 9 10 13
3 3 3 3 3 3 3 3 3 3 4 3 4 4 3 4 3 4 3 1 2 3 17 8 7 4 5 7 6 6 4 6 9 9 9 10 8 8 9 8 7 9 7 8 8 10 10
3 3 3 3 3 3 3 3 3 3 4 4 4 4 4 3 2 2 2 1 2 11 16 9 7 8 8 6 6 5 5 4 4 7 6 7 5 6 7 7 7 6 8 8 9 10 14
3 2 3 3 3 3 3 3 3 3 4 4 4 4 5 3 4 2 2 3 11 14 8 9 9 8 8 8 7 6 7 7 8 10 10 8 8 6 6 8 7 8 10 14 15 15 15
3 2 2 2 3 3 3 3 3 3 4 4 5 5 4 3 2 2 3 7 15 9 9 7 8 8 9 7 7 7 7 9 7 8 10 12 13 8 6 8 9 9 10 14 20 19 17
3 3 3 2 2 2 2 3 3 4 4 5 5 2 3 1 1 2 6 12 11 9 8 8 8 9 9 7 7 8 8 8 7 7 10 12 11 7 6 6 7 9 11 8 13 12 16
3 3 3 2 2 2 3 3 3 3 4 5 5 3 3 1 2 4 8 10 9 7 7 7 10 8 10 9 9 9 9 7 8 6 6 8 12 8 7 6 6 8 7 14 14 20 20
3 3 3 2 2 2 2 2 3 3 4 5 4 5 3 2 3 6 11 9 8 7 7 8 9 9 9 9 9 9 9 7 6 7 6 7 10 11 8 9 10 9 10 10 10 12 16
3 3 2 2 3 3 3 3 3 4 5 5 4 8 2 3 8 6 9 9 9 8 6 6 7 7 8 8 9 9 10 8 6 6 9 7 10 13 11 7 8 9 10 12 16 15 13
3 3 3 2 3 3 3 3 4 4 5 6 6 5 2 3 9 9 7 8 7 8 7 7 8 6 6 8 11 9 8 6 6 7 9 9 11 15 12 9 10 12 10 10 11 12 14
3 3 3 3 3 3 3 4 4 4 5 5 5 8 5 5 5 7 8 9 9 7 7 6 7 6 7 9 7 9 9 7 6 6 6 7 10 13 17 13 12 14 11 10 12 15 13
3 3 3 3 3 3 3 4 4 5 5 4 5 7 6 9 8 7 7 8 9 9 7 6 7 8 8 11 9 10 8 8 6 6 6 8 13 11 10 9 9 10 11 10 10 10 12
3 3 4 4 5 5 4 4 4 4 5 3 7 8 8 9 6 7 7 8 8 8 8 8 9 8 8 10 9 11 9 8 10 7 8 7 13 11 12 9 9 11 10 9 9 9 9
3 4 4 5 5 5 5 4 4 4 4 5 5 5 8 9 8 8 8 8 8 8 8 6 7 8 8 8 6 5 5 6 7 9 10 10 12 13 15 10 10 13 11 11 11 10 9
4 4 5 5 5 5 5 5 5 4 5 5 5 5 9 11 9 9 8 8 8 8 9 7 6 8 6 3 4 5 5 6 7 8 7 12 12 13 15 13 18 10 8 8 10 9 8
4 5 5 5 5 5 5 5 5 5 5 5 4 6 7 11 9 9 8 8 8 7 8 7 6 5 3 5 9 10 10 12 10 8 8 9 11 15 16 16 12 11 10 11 12 12 8
6 5 5 6 6 6 6 5 5 5 5 5 5 4 5 9 10 8 9 8 10 10 9 7 5 3 4 8 10 14 15 12 13 11 8 9 10 14 14 18 19 13 9 7 8 15 8
7 6 6 6 6 6 6 6 5 5 5 5 6 2 5 9 7 7 9 9 8 9 10 8 7 7 5 9 13 13 13 9 13 13 13 13 13 16 15 17 13 9 8 7 16 13 8
8 8 7 7 7 6 6 6 6 5 5 5 6 3 6 8 7 6 6 7 7 8 11 8 9 8 8 12 11 11 11 10 11 10 11 14 14 16 15 16 18 7 8 13 9 7 7
8 8 8 8 8 7 7 6 6 6 5 5 7 4 4 6 7 5 5 4 5 6 7 7 8 9 8 10 10 10 11 10 11 14 8 13 11 14 14 13 7 7 7 6 6 7 7

GFSGBSN_con_lsi_063.txt.gz
Lid_Strength_Index
3 3 3 2 3 3 3 3 3 3 3 3 2 2 2 2 2 2 2 2 2 2 2 1 1 1 3 6 6 1 -3 -2 1 3 4 6 9 10 13 11 10 10 10 9 8 8 7
3 3 3 3 3 3 3 3 3 3 3 3 3 3 3 3 3 2 2 2 2 2 2 1 1 0 4 8 4 3 1 3 4 6 6 7 8 8 10 10 11 10 10 9 9 10 9
3 3 3 3 3 3 3 2 2 3 3 3 3 3 3 3 3 3 2 2 2 2 2 1 0 1 5 6 4 4 4 6 5 4 6 6 6 8 9 10 8 9 11 10 9 9 9
3 3 3 3 3 3 3 3 3 3 3 3 2 3 3 3 3 2 2 2 2 2 1 0 0 3 7 2 5 5 5 5 4 4 5 5 5 7 9 9 9 11 12 15 11 8 7
3 3 3 3 3 3 3 3 3 3 3 3 3 3 3 3 3 2 2 2 2 1 0 0 3 5 7 3 5 5 6 6 5 5 5 4 7 9 9 12 14 13 15 14 12 9 8
3 2 3 3 3 4 4 3 3 3 4 3 3 3 3 3 3 3 3 2 2 1 1 1 2 6 5 7 5 5 5 4 6 6 6 7 9 11 12 13 17 15 15 13 13 10 10
2 2 2 3 3 3 3 3 4 3 3 3 3 3 3 3 3 3 4 5 6 6 5 6 5 5 5 4 4 5 4 5 6 7 11 9 12 14 12 11 10 11 12 12 11 9 10
2 2 3 3 3 3 3 3 3 3 3 3 3 3 3 3 3 3 5 7 6 6 9 5 5 5 4 5 8 6 4 7 8 11 10 11 14 10 9 9 10 11 12 13 11 9 10
3 3 3 3 3 3 3 3 3 3 3 3 3 3 3 3 3 5 6 5 4 4 10 7 5 6 6 6 7 7 5 7 9 11 11 13 11 8 9 10 11 11 12 12 12 10 9
3 3 3 3 3 2 2 2 2 3 3 4 4 4 4 4 5 5 6 4 4 4 13 9 9 7 6 6 8 5 5 7 9 11 10 11 9 10 10 11 10 13 9 9 10 12 15
3 3 2 2 2 2 2 2 2 2 3 4 4 4 4 4 7 6 6 4 4 6 19 9 8 5 6 8 7 6 4 7 10 10 11 12 11 10 10 9 8 11 8 9 10 12 14
3 3 3 2 2 2 3 3 2 3 3 3 4 4 4 4 5 4 4 4 5 13 18 11 8 8 9 8 7 6 6 6 6 9 9 9 6 7 8 7 7 7 9 9 10 13 16
3 3 3 2 2 2 2 3 3 3 3 3 4 4 5 5 6 3 4 6 13 17 8 11 9 8 9 9 8 7 8 9 10 13 12 9 9 7 6 9 8 9 12 18 19 18 17
3 3 3 2 2 2 2 2 3 3 3 4 5 5 4 4 4 4 6 10 17 11 11 8 9 8 10 8 8 8 9 10 8 9 12 13 14 9 7 8 10 11 12 18 21 20 17
3 3 3 2 2 2 3 3 3 3 4 5 5 4 5 3 2 5 9 15 14 11 9 10 9 10 10 8 9 9 10 10 8 8 13 15 13 7 7 7 8 11 13 11 15 15 18
3 3 2 2 3 2 3 3 3 4 4 5 7 5 4 2 3 6 11 12 10 9 9 9 12 9 12 10 10 10 10 8 9 7 8 10 15 9 8 7 7 9 9 14 16 22 22
3 3 2 3 3 3 3 3 4 4 5 5 6 6 4 3 4 8 13 11 9 8 8 10 10 10 10 11 10 10 10 8 7 8 7 9 12 12 9 10 12 12 14 13 14 16 20
3 3 3 3 3 3 3 3 4 4 5 5 6 9 3 4 10 9 11 8 7 7 7 8 8 8 9 9 10 10 10 9 6 7 10 10 13 15 12 8 8 10 12 12 17 18 16
3 3 3 3 3 4 4 4 3 4 5 7 8 7 3 4 12 11 8 8 7 8 8 9 9 7 8 10 12 9 9 6 6 8 10 10 13 17 15 12 10 12 10 10 13 14 17
3 3 3 3 4 4 4 4 4 4 5 6 7 10 7 7 7 10 10 10 9 6 7 8 8 8 9 10 9 11 10 7 6 7 6 8 12 15 18 15 12 14 11 10 12 17 15
4 3 3 4 5 4 4 4 4 4 5 6 6 9 9 12 11 10 9 9 9 9 7 8 9 9 10 13 11 11 9 9 7 6 8 10 15 13 12 11 10 11 11 11 12 12 15
5 4 4 5 5 5 5 4 4 4 5 6 10 10 9 11 9 10 9 10 9 9 9 10 11 9 9 12 11 11 10 10 11 8 10 9 14 12 14 11 11 12 11 11 10 11 11
5 5 5 5 5 5 5 5 4 4 5 7 6 6 9 10 11 12 11 11 10 9 8 8 9 10 10 9 8 7 7 7 8 10 10 12 13 14 17 11 12 15 11 11 11 10 10
5 6 7 6 6 6 6 5 5 4 5 7 7 6 9 12 11 11 10 10 10 10 11 8 8 9 7 5 6 6 7 8 8 8 8 12 13 13 17 14 21 12 8 9 10 10 9
5 6 7 7 6 6 6 6 6 6 5 7 7 8 9 12 10 10 10 10 9 9 10 10 8 6 6 7 10 12 12 13 11 9 10 9 12 15 17 18 14 12 11 12 13 13 9
6 6 7 8 8 7 7 6 7 7 7 8 8 6 7 10 12 9 11 10 11 11 11 9 7 6 7 9 11 15 17 13 14 12 9 9 10 14 15 19 21 14 10 7 9 16 9
6 7 7 8 8 8 7 7 7 7 7 8 9 7 8 10 9 9 11 11 10 10 11 10 9 10 7 11 14 16 15 10 16 15 15 14 14 16 16 17 15 10 9 8 16 14 9
7 7 7 8 8 8 8 8 7 7 7 8 10 8 8 10 9 8 8 10 9 10 11 10 11 10 10 13 13 13 14 12 14 12 13 15 15 16 15 17 19 8 9 13 10 8 7
7 8 8 8 8 8 8 8 7 8 7 7 11 8 7 9 9 6 7 7 7 8 10 9 10 10 9 11 11 11 13 12 13 16 9 15 12 14 14 14 8 7 8 7 6 7 7

GFSGBSN_con_lsi_069.txt.gz
Lid_Strength_Index
2 2 2 2 3 3 3 3 3 3 2 3 3 2 2 2 3 3 3 3 2 2 2 2 1 1 3 7 6 2 -3 -2 0 1 5 7 11 12 15 14 13 14 13 11 11 11 11
2 2 2 2 2 3 3 3 3 2 2 2 2 2 2 2 3 3 3 3 3 2 2 2 1 0 5 11 3 2 2 2 2 5 6 7 10 9 12 13 14 13 13 13 11 11 11
2 2 2 2 2 2 3 3 3 3 3 2 2 2 2 3 3 3 3 3 3 2 2 1 1 1 6 10 4 3 1 5 5 5 7 7 7 9 10 12 11 12 14 12 11 11 11
2 2 2 2 2 2 3 3 3 3 3 3 3 3 3 3 3 3 3 3 3 2 2 1 0 3 9 4 3 4 5 5 5 5 6 7 7 9 11 11 11 13 15 17 13 12 11
2 2 2 2 2 2 3 3 3 2 3 3 3 3 3 3 3 3 3 3 2 2 1 1 5 6 7 1 6 5 6 7 6 5 5 4 8 10 10 14 15 15 18 16 14 11 11
2 2 2 2 2 2 2 2 2 3 3 3 2 3 3 3 3 3 3 3 3 3 2 1 3 7 6 6 5 6 6 6 7 7 7 8 11 12 14 15 18 16 16 15 15 12 11
2 3 2 2 2 2 2 2 2 3 3 3 3 3 3 4 3 3 5 7 9 10 6 9 6 6 4 3 4 6 5 6 6 9 13 11 14 16 14 13 12 13 14 14 13 11 12
3 3 3 2 2 2 2 2 2 3 3 3 3 3 3 3 3 4 7 7 7 8 11 7 7 5 4 4 7 7 5 8 9 12 11 13 15 12 11 11 12 13 14 14 12 10 11
3 3 3 3 2 2 2 2 2 3 3 3 3 3 4 4 4 6 8 6 5 8 12 9 7 7 7 6 8 8 6 8 11 12 13 14 12 10 11 12 12 13 14 14 14 11 11
3 3 3 3 2 2 2 2 3 3 2 3 3 4 4 4 7 8 7 5 6 8 14 10 10 8 7 8 9 6 5 7 10 12 12 13 11 11 12 12 11 14 10 11 12 14 17
3 3 3 3 3 3 3 3 3 3 3 3 4 4 4 4 9 8 6 6 7 7 19 9 10 7 8 9 8 7 5 8 11 11 12 12 12 12 12 11 9 12 9 11 11 13 15
3 3 3 3 3 3 3 3 3 3 3 3 3 4 4 6 8 6 5 7 7 14 18 11 9 10 11 10 9 8 8 7 8 11 11 11 9 10 10 8 9 9 11 12 13 15 19
3 3 3 3 3 3 3 4 4 4 4 4 4 4 5 5 8 6 6 7 13 17 9 12 11 10 11 11 10 9 10 11 13 16 15 12 11 9 7 10 10 12 15 19 19 19 19
4 3 3 3 3 3 4 4 4 4 4 4 4 4 5 5 6 5 7 10 17 11 12 9 10 10 12 10 10 10 11 13 10 11 15 15 15 10 8 11 13 13 14 19 21 20 17
4 4 3 3 3 4 4 4 4 4 5 5 5 7 6 5 4 7 9 15 14 12 10 10 10 12 12 10 11 11 12 11 10 10 14 16 14 9 8 9 10 13 15 13 16 16 19
4 4 5 4 4 4 4 4 4 4 5 5 9 7 6 4 6 7 11 12 11 8 9 10 13 11 14 13 12 12 12 9 9 8 9 11 16 10 9 9 9 11 10 16 18 22 22
4 4 4 5 4 4 4 4 4 4 5 5 8 8 5 6 6 9 14 12 9 7 8 10 12 12 12 13 12 12 12 10 8 9 9 11 13 13 11 12 14 14 14 14 15 16 20
5 5 4 5 6 5 5 5 5 5 5 7 10 11 5 6 11 12 13 10 8 8 7 9 10 10 11 11 12 12 12 10 8 8 12 11 13 16 14 10 10 11 13 13 17 18 17
5 5 5 5 6 6 6 5 5 5 6 8 12 11 6 7 16 15 12 10 9 9 9 9 11 10 10 12 14 11 10 8 8 9 11 10 14 17 15 14 11 12 11 12 13 14 17
5 5 5 6 6 6 6 6 6 6 6 9 11 15 13 12 12 14 13 12 11 7 9 9 10 10 12 13 12 12 11 9 8 9 6 8 13 15 18 14 13 14 12 11 13 17 16
5 5 5 6 7 7 7 7 6 6 7 10 13 15 14 17 16 15 14 12 11 11 10 10 12 11 13 15 14 13 11 11 9 7 9 10 15 13 13 12 12 13 13 12 14 13 16
5 5 6 6 7 7 7 7 7 7 7 10 13 15 14 16 14 14 13 13 12 11 11 12 13 11 12 14 13 14 13 13 13 10 11 10 14 12 14 11 12 13 12 12 12 12 12
5 5 6 6 7 7 8 7 7 7 9 13 12 12 13 15 16 17 16 14 13 12 11 10 11 13 13 12 10 10 10 10 10 11 11 12 13 14 17 13 13 16 13 12 11 10 11
6 5 6 7 7 8 8 8 8 7 9 12 12 13 14 16 16 15 14 13 13 12 13 10 11 13 11 8 9 10 10 10 10 10 9 12 13 14 16 15 20 12 9 9 11 10 10
6 6 6 7 8 8 8 8 8 8 8 12 12 13 14 16 15 15 13 13 13 12 13 12 11 10 10 11 13 14 14 13 11 10 11 10 11 15 17 17 14 12 11 11 13 12 9
6 6 7 7 8 8 8 8 8 8 8 12 13 12 13 15 17 13 14 13 15 16 14 12 10 9 10 12 13 15 16 14 14 14 9 10 10 14 16 19 21 13 10 8 9 16 9
6 6 7 7 8 8 8 8 8 8 8 11 12 12 13 15 14 14 16 15 14 16 16 13 10 10 9 12 15 15 15 11 16 15 14 14 14 15 16 17 15 10 9 7 16 14 9
7 6 7 7 8 8 8 8 8 8 8 10 12 11 13 14 13 12 11 13 14 14 16 14 12 11 13 13 13 13 14 13 14 12 14 15 15 16 15 17 19 8 9 13 10 9 7
7 6 7 8 8 8 8 8 8 8 8 8 13 11 11 13 14 12 11 10 10 10 12 13 13 11 10 14 11 13 14 13 13 16 10 15 12 14 14 14 9 7 8 7 6 7 7

GFSGBSN_con_lsi_072.txt.gz
Lid_Strength_Index
1 1 1 1 2 2 2 3 3 3 2 2 2 2 2 2 2 3 3 3 3 3 3 2 2 1 4 8 6 2 -2 -1 1 3 6 7 10 12 13 12 13 14 13 11 11 11 11
2 1 1 1 1 2 2 3 3 3 3 3 2 2 2 2 2 3 3 3 3 3 3 2 2 1 6 12 5 3 1 2 3 5 7 7 10 10 12 12 13 12 13 12 11 11 11
2 2 2 2 2 2 2 2 2 3 3 3 3 3 2 2 2 3 2 2 3 3 2 2 1 2 7 11 4 3 3 5 5 5 8 8 8 9 11 13 12 13 15 14 12 12 13
2 2 2 2 2 2 2 3 2 2 2 2 3 3 3 3 3 3 2 2 3 2 2 2 1 4 10 5 4 3 5 5 5 5 6 7 7 10 11 11 12 14 16 19 15 13 12
2 2 2 2 2 2 2 2 2 3 3 2 3 3 3 3 3 3 2 3 2 2 2 2 5 8 8 2 5 5 6 7 7 6 6 4 8 10 11 14 15 15 18 17 14 12 12
3 3 2 2 2 2 2 2 2 2 3 3 3 3 4 4 3 3 3 3 3 2 2 2 3 8 7 6 4 6 7 7 8 7 8 9 11 12 14 15 18 17 17 16 15 12 12
3 3 3 3 2 2 2 2 2 3 3 3 4 3 4 4 4 3 5 8 9 10 7 10 8 7 6 4 4 7 6 6 7 9 13 12 14 16 14 13 13 13 14 15 13 11 12
3 3 3 3 2 3 2 3 3 3 3 3 3 4 4 4 4 4 7 8 8 8 11 8 8 6 5 5 8 6 6 9 10 13 12 13 15 12 11 12 13 13 15 15 13 11 12
3 3 3 3 3 3 3 3 3 3 4 3 3 4 4 4 4 7 8 7 6 8 12 10 8 8 8 7 8 8 7 9 11 13 13 14 13 10 11 13 13 13 14 15 14 12 12
3 3 3 3 3 3 3 4 4 4 4 4 4 4 4 4 6 8 8 6 7 8 15 11 10 9 8 8 10 6 6 8 11 12 13 13 11 11 13 13 12 15 12 12 13 15 18
4 3 3 3 3 4 4 4 4 4 4 4 4 4 3 4 9 8 6 6 7 7 19 10 10 8 10 11 10 8 6 9 11 12 13 13 13 13 13 12 10 13 10 12 13 15 16
4 4 3 3 3 4 4 4 5 4 4 4 4 4 4 6 8 6 5 7 6 14 18 11 9 10 10 9 9 8 8 8 8 11 12 12 10 11 11 9 9 9 12 13 14 16 20
4 4 4 4 4 4 4 4 5 5 4 4 4 4 5 5 8 7 7 7 14 16 10 12 11 10 11 10 10 9 10 11 14 16 15 12 12 10 8 11 11 12 16 19 21 20 20
4 4 4 4 5 4 4 5 5 5 5 5 5 5 5 5 6 6 7 11 17 13 13 10 11 11 12 10 11 10 12 13 10 12 15 15 16 11 8 11 13 14 14 19 22 21 19
5 4 5 4 5 5 4 5 5 5 5 5 6 7 7 6 5 7 9 16 15 13 11 12 11 13 13 11 11 12 13 12 11 11 15 17 14 9 8 9 10 14 16 14 17 18 20
4 5 5 5 5 6 6 5 5 5 5 6 9 8 7 7 7 8 12 13 12 9 9 11 14 12 15 13 13 13 13 10 10 9 10 13 16 10 9 9 10 12 11 17 19 23 24
4 4 5 5 6 6 6 6 5 5 6 6 9 9 7 7 7 10 15 13 10 8 8 11 12 13 13 14 13 13 12 10 8 10 10 12 14 13 11 12 14 14 16 14 16 18 21
4 4 5 6 6 7 6 6 6 6 6 8 11 12 7 8 12 15 15 12 8 9 8 9 10 11 12 12 13 13 12 11 8 9 12 11 14 16 14 10 10 12 14 14 19 18 17
4 4 5 6 6 6 7 6 6 7 7 9 12 11 7 9 18 17 15 12 11 10 9 10 11 11 11 13 14 12 11 9 8 10 11 11 14 18 15 14 12 13 12 12 13 14 17
4 4 5 6 6 7 7 7 7 7 7 10 13 15 13 13 14 16 16 15 13 9 10 10 11 11 13 14 12 13 12 9 9 9 7 8 13 15 17 15 15 15 12 11 13 17 16
6 5 5 6 7 7 7 7 7 7 7 11 14 16 15 18 17 16 16 15 14 13 11 11 12 12 13 15 14 14 12 12 10 8 10 11 15 13 12 12 12 13 13 12 14 13 16
6 6 6 6 7 7 8 7 7 7 8 12 15 16 15 17 15 16 15 16 15 14 13 13 14 12 13 15 14 14 13 14 13 11 12 10 14 13 15 12 12 13 12 12 12 12 13
7 6 6 6 7 8 8 8 7 7 10 14 13 13 13 15 17 17 17 15 15 14 12 11 13 13 14 13 12 12 11 11 11 12 12 13 14 14 16 12 13 16 13 12 12 11 12
7 7 6 6 7 8 8 8 8 7 9 13 13 14 15 17 16 17 15 15 15 14 14 12 12 14 11 9 10 10 11 11 11 11 10 13 12 13 16 14 20 13 10 10 11 10 10
8 7 6 7 7 8 8 8 8 8 8 12 13 14 16 17 14 15 14 15 14 14 14 13 11 10 10 11 13 13 13 13 11 11 11 10 12 15 17 17 15 12 11 12 13 12 9
8 7 6 7 7 8 8 8 8 8 8 13 14 13 15 16 17 14 15 15 17 17 15 13 11 10 11 12 13 16 18 14 15 13 9 10 10 14 16 19 21 14 10 8 9 15 9
7 7 6 6 7 8 8 8 8 8 8 12 14 13 14 16 13 14 17 17 15 16 17 15 11 13 11 11 14 15 16 12 16 15 15 14 14 16 16 17 15 10 9 8 16 14 9
7 7 6 6 7 7 8 8 8 8 8 11 13 12 14 15 14 13 13 15 15 15 17 15 15 13 14 15 13 13 14 13 14 12 14 15 15 16 15 17 19 8 9 13 10 8 7
7 7 6 6 7 7 8 8 8 8 9 9 13 12 10 13 14 13 12 11 11 11 14 14 15 14 13 16 12 14 15 15 14 16 10 15 12 15 13 14 9 7 8 7 8 8 7

GFSGBSN_con_lsi_075.txt.gz
Lid_Strength_Index
2 1 1 1 2 2 2 2 3 3 3 2 2 2 2 2 2 2 3 3 3 3 3 3 2 2 3 7 5 1 -2 -2 1 3 5 6 7 8 9 8 8 9 8 8 8 8 9
2 2 2 1 2 2 2 2 2 2 2 3 3 3 2 2 2 2 3 3 2 3 3 3 2 1 4 10 3 1 -0 0 1 3 5 5 7 6 8 8 8 8 8 8 8 8 8
2 2 2 2 2 2 2 2 2 2 2 2 2 3 3 3 3 3 3 2 2 3 2 2 2 2 6 9 3 2 1 3 3 3 5 5 5 7 7 9 8 8 10 9 9 9 10
2 2 2 2 2 2 2 2 2 2 3 2 2 3 3 4 3 3 3 2 3 3 2 2 1 2 8 5 3 2 2 3 3 3 4 4 4 6 7 7 8 10 11 12 10 10 9
2 2 2 2 2 2 2 2 2 3 3 3 3 4 3 3 3 3 3 3 2 2 2 1 3 5 7 1 4 4 3 5 5 5 4 4 5 7 7 9 10 11 12 12 11 9 10
2 3 3 2 2 2 2 2 3 3 3 3 3 3 3 4 3 3 3 3 2 1 2 2 3 6 5 6 3 4 4 5 6 6 6 6 7 8 8 9 13 13 12 12 12 10 10
3 3 3 3 3 3 3 3 3 3 3 3 3 4 4 4 3 3 4 5 6 7 4 8 7 7 6 3 4 6 5 5 5 7 9 8 9 11 10 10 10 10 11 12 10 9 10
3 3 3 3 3 3 3 3 4 4 4 4 4 4 4 4 3 3 5 5 6 6 9 7 6 6 5 4 7 6 5 7 8 10 9 9 11 9 9 10 11 11 12 12 10 9 9
4 4 3 3 3 3 4 4 4 5 4 4 4 4 4 3 3 4 4 5 4 5 8 8 7 7 6 5 7 7 6 7 8 10 10 11 10 9 10 10 10 10 11 11 12 10 9
4 4 4 3 3 4 4 4 5 5 5 5 5 4 4 4 4 5 5 3 4 4 10 9 8 6 5 5 8 4 5 7 9 10 10 10 9 10 10 10 10 12 9 10 11 12 14
4 4 4 4 4 4 4 5 5 5 5 5 5 4 4 4 5 5 4 3 4 4 15 8 8 5 6 7 7 7 5 6 9 9 10 10 10 10 10 10 8 10 9 10 10 12 12
4 4 4 4 4 5 4 5 5 5 5 5 4 4 4 5 5 4 4 4 4 10 16 10 8 8 8 7 7 6 6 5 6 8 9 9 8 9 9 8 7 8 9 10 11 12 15
4 4 4 5 4 5 5 5 5 5 5 5 5 4 5 5 6 5 4 4 10 14 9 11 10 9 9 9 9 8 9 9 10 12 11 10 9 8 7 8 8 9 10 14 15 15 15
4 4 4 5 5 5 5 6 5 5 5 5 5 5 5 5 4 4 5 8 15 12 11 9 9 9 11 9 9 9 10 10 8 10 11 12 13 9 7 9 10 9 10 14 19 17 15
4 4 4 5 5 6 6 6 6 6 6 6 6 4 4 3 4 5 7 13 12 12 10 10 10 11 11 10 10 10 10 10 9 8 11 13 12 8 8 7 8 10 12 10 13 12 15
4 3 4 4 5 6 6 6 6 6 6 6 6 5 4 4 5 6 9 12 11 9 9 9 12 10 12 11 11 11 11 9 9 7 7 10 13 9 8 7 7 8 8 13 13 19 19
5 5 4 4 5 6 6 6 6 6 7 7 6 6 4 5 4 7 11 12 11 9 9 10 11 11 11 11 10 11 11 9 8 8 7 8 11 11 9 10 10 10 11 11 12 13 16
6 6 5 5 5 6 6 7 7 7 7 8 7 9 5 5 9 11 11 11 11 10 9 10 10 10 10 10 11 11 11 9 7 7 10 8 11 13 12 8 7 8 10 10 14 15 14
7 6 6 6 6 7 7 7 7 7 8 9 10 9 5 7 12 13 12 12 11 11 11 11 11 10 10 10 12 10 10 8 7 7 9 9 12 15 13 11 9 11 10 9 10 12 15
7 7 6 6 6 7 8 7 7 8 8 8 11 13 11 11 11 13 14 14 13 10 11 11 11 10 11 11 10 11 11 9 8 8 7 7 11 13 15 12 11 12 11 10 11 16 14
8 7 7 6 7 8 8 8 7 8 8 10 12 13 13 15 14 14 13 13 14 14 11 11 12 11 11 12 12 12 10 10 9 8 8 8 13 11 11 10 10 11 11 10 12 12 15
8 8 7 6 7 8 8 8 7 8 9 10 13 13 12 13 13 14 14 14 14 13 13 13 13 11 11 12 11 12 11 11 11 9 9 8 12 11 13 11 11 12 11 11 11 11 11
8 8 7 7 7 8 8 8 8 8 10 12 11 11 11 14 14 15 15 14 14 13 13 11 11 12 12 11 9 8 7 8 8 10 9 10 11 13 15 11 11 14 11 10 10 9 10
8 8 7 7 7 7 8 8 8 8 10 11 12 12 13 16 14 15 14 14 14 14 14 12 11 12 10 8 8 7 7 7 7 8 8 10 11 12 15 13 19 10 8 8 10 9 8
8 8 7 7 7 7 8 8 8 8 9 10 11 12 13 16 14 15 14 14 13 13 14 12 11 9 8 9 12 12 10 11 10 9 9 9 11 14 17 16 12 11 9 10 11 10 7
8 8 8 7 7 7 8 8 8 8 9 10 11 11 12 15 16 14 14 14 15 15 13 12 10 8 8 10 11 14 15 12 13 13 9 10 10 13 15 18 20 12 9 7 8 14 7
7 8 8 7 7 7 7 8 8 8 9 10 11 11 12 15 13 13 15 15 13 14 14 13 11 11 8 11 12 14 14 11 15 15 14 14 13 15 15 16 13 8 8 7 15 12 7
7 7 7 7 6 7 7 7 8 8 8 10 11 10 12 14 14 13 12 13 13 13 15 13 13 11 10 11 12 12 13 11 12 11 13 14 14 15 14 16 17 7 8 12 8 6 6
7 7 7 7 6 6 7 7 7 8 8 9 11 10 10 13 13 11 11 10 11 10 12 11 12 11 9 9 10 10 11 11 12 14 9 13 11 13 12 12 7 6 7 5 5 7 6